Location: Robert Brownlee Observatory
(34.2308°N, 117.2089°W)
Time: 22:24:11
(UTC-08:00)

Cosmos 1943 - Visible Passes

Search period start: 21 December 2014 00:00
Search period end: 31 December 2014 00:00
Orbit: 834 x 851 km, 71.0° (Epoch: 21 December)

Date Brightness Start Highest point End Pass type
(mag) Time Alt. Az. Time Alt. Az. Time Alt. Az.
21 Dec 3.2 18:17:53 10° NNW 18:23:29 56° ENE 18:29:02 10° SE visible
21 Dec 5.8 20:03:36 10° WNW 20:06:58 16° W 20:10:19 10° SW visible
22 Dec 3.3 18:03:02 10° N 18:08:36 53° ENE 18:14:08 10° SE visible
22 Dec 5.7 19:48:34 10° WNW 19:52:08 17° W 19:55:41 10° SW visible
23 Dec 3.3 17:48:12 10° N 17:53:43 50° ENE 17:59:13 10° SE visible
23 Dec 5.7 19:33:32 10° WNW 19:37:17 18° W 19:41:02 10° SW visible
24 Dec 3.4 17:33:21 10° N 17:38:50 48° ENE 17:44:18 10° SE visible
24 Dec 5.7 19:18:32 10° NW 19:22:26 19° W 19:26:21 10° SW visible
25 Dec 3.5 17:18:31 10° N 17:23:57 45° ENE 17:29:22 10° SE visible
25 Dec 5.7 19:03:32 10° NW 19:07:36 21° W 19:11:40 10° SSW visible
26 Dec 6.1 06:23:50 10° SE 06:27:43 20° E 06:31:37 10° NE visible
26 Dec 3.6 17:03:40 10° N 17:09:04 43° ENE 17:14:26 10° SE visible
26 Dec 5.7 18:48:32 10° NW 18:52:45 22° W 18:56:58 10° SSW visible
27 Dec 6.1 06:09:10 10° SE 06:12:53 18° E 06:16:37 10° ENE visible
27 Dec 5.6 18:33:33 10° NW 18:37:54 23° W 18:42:15 10° SSW visible
28 Dec 6.2 05:54:29 10° SE 05:58:02 17° E 06:01:35 10° ENE visible
28 Dec 5.6 18:18:35 10° NW 18:23:03 24° WSW 18:27:31 10° SSW visible
29 Dec 6.2 05:39:50 10° SE 05:43:11 16° E 05:46:32 10° ENE visible
29 Dec 5.6 18:03:37 10° NW 18:08:12 26° WSW 18:12:47 10° SSW visible
30 Dec 6.3 05:25:13 10° SE 05:28:20 15° E 05:31:29 10° ENE visible
30 Dec 5.5 17:48:39 10° NW 17:53:21 27° WSW 17:58:02 10° SSW visible
